Regional Weather Roundup
Issued by NWS

Home | Current Version | Previous Version | Text Only | Print | Product List | Glossary On
Versions: 1 2 3 4 5 6 7 8 9 10 11 12 13 14 15 16 17 18 19 20 21 22 23 24 25 26 27 28 29 30 31 32 33 34 35 36 37 38 39 40 41 42 43 44 45 46 47 48 49 50
000
ASUS44 KLIX 230813
RWRLA
LOUISIANA WEATHER ROUNDUP
NATIONAL WEATHER SERVICE NEW ORLEANS LA
300 AM CDT SUN JUL 23 2017

NOTE: "FAIR" INDICATES FEW OR NO CLOUDS BELOW 12,000 FEET WITH NO
      SIGNIFICANT WEATHER AND/OR OBSTRUCTIONS TO VISIBILITY.
      SKY/WX - SKY CONDITION AND SIGNIFICANT WEATHER.
      TMP - AIR TEMPERATURE.    DP   - DEWPOINT TEMPERATURE.
      RH  - RELATIVE HUMIDITY.  PRES - PRESSURE.
      HX  - HEAT INDEX.         WCI  - WIND CHILL INDEX.

*  THESE STATIONS ARE NOT NWS OR FAA STATIONS AND ARE NOT UNDER
   NWS QUALITY CONTROL.

LAZ040-048-061>063-065-066-069-230900-
SOUTHEAST LOUISIANA

CITY           SKY/WX    TMP DP  RH WIND       PRES   REMARKS
N.O. INTL ARPT PTCLDY    77  74  90 SW3       29.97S
N.O. LAKEFRONT CLEAR     79  76  90 SW7       29.97S
N.O. DOWNTOWN*   N/A     78  74  87 CALM        N/A
RESERVE*       FAIR      78  74  88 W5        29.96F
SLIDELL        PTCLDY    75  72  90 CALM      29.96S
BATON ROUGE    CLEAR     76  74  93 SW6       29.96F
BOOTHVILLE     NOT AVBL
BELLE CHASSE   NOT AVBL
BOGALUSA*      FAIR      73  70  89 CALM      29.98F
GALLIANO*      PTSUNNY   74  72  91 CALM      29.97R
NEW ROADS*     FAIR      74  73  99 CALM      29.97R FOG
GONZALES*      FAIR      74  74  99 CALM      29.96S
HAMMOND*       CLEAR     72  70  94 CALM      29.97S
HOUMA*         NOT AVBL
PORT FOURCHON* SUNNY     82  73  74 SW8       29.97S

$$

LAZ041-044-053-054-230900-
SOUTHWEST LOUISIANA

CITY           SKY/WX    TMP DP  RH WIND       PRES   REMARKS
LAKE CHARLES   CLOUDY    81  77  88 SW5       29.94S
LAFAYETTE      PTCLDY    77  75  93 S3        29.96S
PATTERSON      PTCLDY    76  74  93 CALM      29.98R
SALT POINT       N/A     83  75  77 VRB6      29.95R
NEW IBERIA     PTCLDY    76  73  91 S3        29.97S
CHENAULT AIRPK PTCLDY    76  75  96 CALM      29.94F

$$

LAZ027-028-230900-
CENTRAL LOUISIANA

CITY           SKY/WX    TMP DP  RH WIND       PRES   REMARKS
FORT POLK      CLEAR     74  73  95 CALM      29.94F
ALEXANDRIA INT CLEAR     73  72  96 CALM      29.93F
ALEXANDRIA     CLEAR     72  72 100 CALM      29.95S FOG

$$

LAZ001-002-230900-
NORTHWEST LOUISIANA

CITY           SKY/WX    TMP DP  RH WIND       PRES   REMARKS
SHREVEPORT     PTCLDY    79  76  90 S5        29.91F
BARKSDALE AFB  CLEAR     79  76  90 S8        29.91F
DTN SHREVEPORT PTCLDY    81  75  82 S8        29.91F

$$

LAZ014-016-230900-
NORTHEAST LOUISIANA

CITY           SKY/WX    TMP DP  RH WIND       PRES   REMARKS
MONROE         PTCLDY    74  72  93 S3        29.94S
TALLULAH       CLOUDY    74  73  97 S3        29.94F FOG

$$




USA.gov is the U.S. government's official web portal to all federal, state and local government web resources and services.